Regional Weather Roundup
Issued by NWS Charleston, SC

Current Version | Previous Version | Graphics & Text | Print | Product List | Glossary On
Versions: 1 2 3 4 5 6 7 8 9 10 11 12 13 14 15 16 17 18 19 20 21 22 23 24 25 26 27 28 29 30 31 32 33 34 35 36 37 38 39 40 41 42 43 44 45 46 47 48 49 50
000
ASUS42 KCHS 011325
RWRCHS

REGIONAL WEATHER ROUNDUP
NATIONAL WEATHER SERVICE CHARLESTON SC
900 AM EDT FRI AUG 01 2014

NOTE: "FAIR" INDICATES FEW OR NO CLOUDS BELOW 12,000 FEET WITH NO
SIGNIFICANT WEATHER AND/OR OBSTRUCTIONS TO VISIBILITY.

NOT ALL STATIONS ARE QUALITY CONTROLLED BY THE NATIONAL
WEATHER SERVICE. USE DATA WITH CAUTION...ESPECIALLY
DEWPOINT OBSERVATIONS.

SCZ027-030-031-034>040-042>050-011400-
...SOUTH CAROLINA...

CITY           SKY/WX    TMP DP  RH WIND       PRES   REMARKS
N CHARLESTON   MOSUNNY   81  75  83 E5        30.01R
WATERFRONT PRK   N/A     81 N/A N/A N6          N/A
FORT JOHNSON   NOT AVBL
MOUNT PLEASANT FAIR      79  77  94 E3        30.02R
JOHNS ISLAND   MOSUNNY   81  70  69 CALM      30.02R
PINOPOLIS        N/A     81  75  83 E5        29.92F
MONCKS CORNER  NOT AVBL
SUMMERVILLE    FAIR      79  77  94 CALM      30.02S
BEAUFORT MCAS  CLOUDY    76  74  93 NE8       30.00S FOG
BEAUFORT ARPT  FAIR      79  77  94 N5        30.00R
HILTON HEAD IS MOSUNNY   79  73  83 N7        30.00S
GEORGETOWN     NOT AVBL
WALTERBORO     CLOUDY    77 N/A N/A CALM      30.02S
ORANGEBURG     CLOUDY    76  71  85 NW3       30.04R
BARNWELL       CLOUDY    73  72  94 N8        30.05S FOG
AIKEN          CLOUDY    68  68 100 N8        30.10R
MANNING        FAIR      79 N/A N/A CALM      30.02S
KINGSTREE      NOT AVBL
COLUMBIA       CLOUDY    72  68  87 NW7       30.05R
SUMTER         CLOUDY    75  75 100 NE6       30.02F FOG
FLORENCE       PTSUNNY   77  72  84 E7        30.03F
MYRTLE BEACH   CLOUDY    77  72  83 CALM      30.04R
N MYRTLE BEACH CLOUDY    76  73  91 NE6       30.03S

$$

GAZ063-065-086>088-099>101-113>116-118-119-134-136>141-150-011400-
...GEORGIA...

CITY           SKY/WX    TMP DP  RH WIND       PRES   REMARKS
SAVANNAH ARPT  NOT AVBL
HUNTER AAF     PTSUNNY   79  75  89 N6        29.98S
FORT STEWART   CLOUDY    75  73  94 N6        30.00R FOG
STATESBORO     NOT AVBL
SYLVANIA       CLOUDY    74  74 100 N5        30.04S FOG
CLAXTON        CLOUDY   N/A N/A N/A CALM      30.02R FOG
THOMSON        CLOUDY    70  70 100 NE5       30.12R
AUGUSTA-BUSH   CLOUDY    71  67  87 VRB6      30.05R
AUGUSTA-DANIEL CLOUDY    71  66  84 N9        30.07R
SWAINSBORO     CLOUDY    73  73 100 NE6       30.04S FOG
VIDALIA          N/A     73  73 100 NE7       30.02S FOG
ALMA           PTSUNNY   79  73  82 E5        29.99R
WAYCROSS       CLOUDY    82  77  84 E3        30.00R HX  90
JESUP          FAIR      82  77  83 E5        30.00R HX  91
BRUNSWICK      PTSUNNY   81  77  89 CALM      30.00R
SAINT SIMONS   MOSUNNY   83  76  79 NW6       29.98R HX  91

$$

SCZ027-028-034-036>038-045-046-048>050-GAZ119-141-011400-
...LAKE AND SUPPLEMENTAL COASTAL OBSERVATIONS...

STATION/POSITION TIME  TEMP    WIND        PRES    WAVE   SWELL
                       AIR SEA DIR/SP/G            HT/PER HT/PER/DIR
                 (UTC) (F)     (DEG/KT/KT) (MB)    (FT/S) (FT/S/D)
UPR LAKE MARION  NOT AVBL
WINYAH BAY       1300   76     110/  6     1016.0S
LAKE MURRAY      1200   67     330/  4/  9 1017.6R
ACE BASIN NERRS  1300   74      10/  2     1016.0S
FORT PULASKI     1300   80      20/  4/  5 1015.8R
SAPELO ISLAND    1300   81      20/  4     1016.0R

$$

ANZ835-935-AMZ111-154-330-350-352-354-374-450-454-472-011400-
...C-MAN AND BUOY OBSERVATIONS...

STATION/POSITION TIME  TEMP    WIND        PRES    WAVE   SWELL
                       AIR SEA DIR/SP/G            HT/PER HT/PER/DIR
                 (UTC) (F)     (DEG/KT/KT) (MB)    (FT/S) (FT/S/D)
FOLLY BEACH CMAN 1300   80      30/  4/  5 1016.6R
BUOY 41004       1300   79 83  150/  8/ 10 1015.5R   4/ 5   3/ 5
BUOY 41008       1300   81 85  180/ 16/ 21 1015.0R   3/ 4   2/ 70/ 8
5E ST. MARYS GA  1300      85                N/A     3/ 4
FRYING PAN BUOY  NOT AVBL
BUOY 41025       1300          VRB 14/ 17  1019.0R   4/ 6   2/110/ 8
CAPE LOOKOUT NC  1300   80     110/ 12/ 12 1018.3R
BUOY 41002       1208   81 81  160/ 14/ 16 1019.0S   4/ 7   2/110/ 7
BUOY 41010       1300   83 84  140/ 10/ 12 1016.4R   3/ 5   2/170/ 5
BUOY 41012       NOT AVBL
ST AUGUSTINE FL  1300   80     220/  5/  6 1016.1R
CAPERS NEARSHORE 1200   80     170/  8/ 10   N/A
FRIPP NEARSHORE  NOT AVBL


$$



USA.gov is the U.S. government's official web portal to all federal, state and local government web resources and services.